Location: Dehesa de la Cepeda
(40.6574°N, 4.3013°W)
Time: 09:47:01
(UTC+00:00)

NOSS 3-3 (C) - Pass Details

Date: 05 July 2020
Orbit: 824 x 1388 km, 63.4° (Epoch: 03 August)

Event Time Altitude Azimuth Distance (km) Brightness Sun altitude
Rises 22:13:16 0° 221° (SW) 3,382 6.7 -20.0°
Reaches altitude 10° 22:15:38 10° 224° (SW) 2,485 6.0 -20.2°
Maximum altitude 22:21:20 68° 308° (NW) 988 4.2 -20.7°
Drops below altitude 10° 22:27:46 10° 31° (NNE) 2,795 6.8 -21.3°
Sets 22:30:35 0° 34° (NNE) 3,838 7.5 -21.6°
